When you browse on this site, cookies collect data to enhance your experience and personalize the content and advertising you see.
Visit our Privacy Policy to learn more. By continuing to use the site, you agree to this use of cookies and data.
  • în România
  • Lista ţărilor
  • Pe 7 zile
  • Temperatura apei
  • Hartă satelitară
  • Meteo pe hartă
  • Widget-uri
  • user-avatar
    Intrare

    Meteo pe oră la Cobija

    Astăzi, 20 Aprilie, Sâmbătă

    Timp Temperatura Precipitaţii Vânt Presiune Umiditate
    00:00 +24°C° 0 mm 0 m/s 738 mmHg 89%
    01:00 +24°C° 0 mm 0 m/s 738 mmHg 90%
    02:00 +23°C° 0 mm 0 m/s 738 mmHg 91%
    03:00 +23°C° 0 mm 0 m/s 738 mmHg 92%
    04:00 +23°C° 0 mm 0 m/s 738 mmHg 94%
    05:00 +24°C° 0 mm 0 m/s 738 mmHg 91%
    06:00 +24°C° 0 mm 0 m/s 739 mmHg 89%
    07:00 +26°C° 0 mm 0 m/s 739 mmHg 85%
    08:00 +29°C° 1 mm 1 m/s 739 mmHg 85%
    09:00 +29°C° 1 mm 1 m/s 739 mmHg 86%
    10:00 +30°C° 1 mm 1 m/s 739 mmHg 86%
    11:00 +31°C° 0.7 mm 1 m/s 738 mmHg 81%
    12:00 +32°C° 0.7 mm 1 m/s 738 mmHg 75%
    13:00 +33°C° 0.7 mm 1 m/s 737 mmHg 70%
    14:00 +33°C° 0.5 mm 1 m/s 737 mmHg 72%
    15:00 +32°C° 0.5 mm 1 m/s 736 mmHg 74%
    16:00 +32°C° 0.5 mm 1 m/s 736 mmHg 76%
    17:00 +30°C° 0 mm 1 m/s 736 mmHg 82%
    18:00 +29°C° 0 mm 1 m/s 736 mmHg 88%
    19:00 +27°C° 0 mm 1 m/s 736 mmHg 94%
    20:00 +27°C° 0 mm 1 m/s 737 mmHg 95%
    21:00 +26°C° 0 mm 1 m/s 737 mmHg 96%
    22:00 +26°C° 0 mm 1 m/s 737 mmHg 97%
    23:00 +26°C° 0 mm 1 m/s 737 mmHg 97%

    Mâine, 21 Aprilie, Duminică

    Timp Temperatura Precipitaţii Vânt Presiune Umiditate
    00:00 +26°C° 0 mm 1 m/s 737 mmHg 96%
    01:00 +24°C° 0 mm 0 m/s 737 mmHg 96%
    02:00 +24°C° 0 mm 0 m/s 737 mmHg 96%
    03:00 +24°C° 0 mm 0 m/s 737 mmHg 96%
    04:00 +23°C° 0 mm 0 m/s 737 mmHg 97%
    05:00 +26°C° 0.1 mm 1 m/s 737 mmHg 95%
    06:00 +26°C° 0.1 mm 1 m/s 738 mmHg 94%
    07:00 +27°C° 0.1 mm 1 m/s 738 mmHg 92%
    08:00 +28°C° 1.4 mm 1 m/s 738 mmHg 92%
    09:00 +29°C° 1.4 mm 1 m/s 739 mmHg 91%
    10:00 +30°C° 1.4 mm 1 m/s 739 mmHg 91%
    11:00 +31°C° 0.8 mm 1 m/s 738 mmHg 85%
    12:00 +31°C° 0.8 mm 1 m/s 737 mmHg 79%
    13:00 +32°C° 0.8 mm 2 m/s 736 mmHg 73%
    14:00 +31°C° 0.1 mm 2 m/s 735 mmHg 73%
    15:00 +31°C° 0.1 mm 1 m/s 735 mmHg 74%
    16:00 +30°C° 0.1 mm 1 m/s 734 mmHg 74%
    17:00 +29°C° 0 mm 1 m/s 734 mmHg 80%
    18:00 +28°C° 0 mm 1 m/s 735 mmHg 86%
    19:00 +25°C° 0 mm 0 m/s 735 mmHg 91%
    20:00 +24°C° 0 mm 0 m/s 736 mmHg 91%
    21:00 +24°C° 0 mm 0 m/s 736 mmHg 92%
    22:00 +24°C° 0 mm 0 m/s 737 mmHg 92%
    23:00 +26°C° 0.2 mm 1 m/s 737 mmHg 92%

    Poimâine, 22 Aprilie, Luni

    Timp Temperatura Precipitaţii Vânt Presiune Umiditate
    00:00 +25°C° 0.2 mm 1 m/s 736 mmHg 93%
    01:00 +25°C° 0.2 mm 1 m/s 736 mmHg 93%
    02:00 +25°C° 0.6 mm 1 m/s 736 mmHg 94%
    03:00 +25°C° 0.6 mm 1 m/s 736 mmHg 95%
    04:00 +25°C° 0.6 mm 1 m/s 735 mmHg 96%
    05:00 +25°C° 1.2 mm 1 m/s 736 mmHg 97%
    06:00 +25°C° 1.2 mm 1 m/s 736 mmHg 97%
    07:00 +26°C° 1.2 mm 1 m/s 737 mmHg 97%
    08:00 +27°C° 0.8 mm 1 m/s 737 mmHg 93%
    09:00 +28°C° 0.8 mm 1 m/s 738 mmHg 88%
    10:00 +30°C° 0.8 mm 1 m/s 738 mmHg 84%
    11:00 +30°C° 1.3 mm 2 m/s 737 mmHg 84%
    12:00 +30°C° 1.3 mm 2 m/s 736 mmHg 85%
    13:00 +30°C° 1.3 mm 2 m/s 735 mmHg 85%
    14:00 +30°C° 0.2 mm 2 m/s 735 mmHg 83%
    15:00 +30°C° 0.2 mm 1 m/s 734 mmHg 81%
    16:00 +30°C° 0.2 mm 1 m/s 734 mmHg 78%
    17:00 +29°C° 0 mm 1 m/s 734 mmHg 82%
    18:00 +28°C° 0 mm 1 m/s 735 mmHg 86%
    19:00 +27°C° 0 mm 1 m/s 735 mmHg 90%
    20:00 +26°C° 0 mm 1 m/s 736 mmHg 91%
    21:00 +26°C° 0 mm 1 m/s 737 mmHg 91%
    22:00 +26°C° 0 mm 1 m/s 737 mmHg 92%
    23:00 +26°C° 0.1 mm 1 m/s 737 mmHg 93%

    23 Aprilie, Marţi

    Timp Temperatura Precipitaţii Vânt Presiune Umiditate
    00:00 +25°C° 0.1 mm 1 m/s 737 mmHg 94%
    01:00 +25°C° 0.1 mm 1 m/s 736 mmHg 95%
    02:00 +25°C° 0 mm 1 m/s 736 mmHg 96%
    03:00 +25°C° 0 mm 1 m/s 736 mmHg 97%
    04:00 +25°C° 0 mm 1 m/s 736 mmHg 98%
    05:00 +25°C° 0 mm 1 m/s 737 mmHg 95%
    06:00 +26°C° 0 mm 1 m/s 737 mmHg 93%
    07:00 +26°C° 0 mm 1 m/s 738 mmHg 90%
    08:00 +28°C° 0.3 mm 1 m/s 738 mmHg 85%
    09:00 +29°C° 0.3 mm 1 m/s 739 mmHg 80%
    10:00 +31°C° 0.3 mm 1 m/s 739 mmHg 75%
    11:00 +31°C° 1.1 mm 1 m/s 738 mmHg 77%
    12:00 +31°C° 1.1 mm 1 m/s 737 mmHg 78%
    13:00 +31°C° 1.1 mm 1 m/s 736 mmHg 80%
    14:00 +31°C° 0.3 mm 1 m/s 736 mmHg 80%
    15:00 +29°C° 0.3 mm 0 m/s 735 mmHg 79%
    16:00 +28°C° 0.3 mm 0 m/s 735 mmHg 79%
    17:00 +27°C° 0 mm 0 m/s 735 mmHg 83%
    18:00 +26°C° 0 mm 0 m/s 736 mmHg 87%
    19:00 +25°C° 0 mm 0 m/s 737 mmHg 91%
    20:00 +24°C° 0 mm 0 m/s 737 mmHg 91%
    21:00 +24°C° 0 mm 0 m/s 738 mmHg 92%
    22:00 +26°C° 0 mm 1 m/s 738 mmHg 93%
    23:00 +25°C° 0.2 mm 1 m/s 738 mmHg 94%

    24 Aprilie, Miercuri

    Timp Temperatura Precipitaţii Vânt Presiune Umiditate
    00:00 +23°C° 0.2 mm 0 m/s 738 mmHg 94%
    01:00 +23°C° 0.2 mm 0 m/s 737 mmHg 94%
    02:00 +23°C° 0 mm 0 m/s 737 mmHg 95%
    03:00 +22°C° 0 mm 0 m/s 737 mmHg 95%
    04:00 +22°C° 0 mm 0 m/s 737 mmHg 95%
    05:00 +23°C° 0.1 mm 0 m/s 738 mmHg 95%
    06:00 +23°C° 0.1 mm 0 m/s 739 mmHg 95%
    07:00 +23°C° 0.1 mm 0 m/s 739 mmHg 94%
    08:00 +24°C° 0.4 mm 0 m/s 740 mmHg 94%
    09:00 +24°C° 0.4 mm 0 m/s 740 mmHg 94%
    10:00 +25°C° 0.4 mm 0 m/s 740 mmHg 93%
    11:00 +26°C° 0.5 mm 0 m/s 739 mmHg 90%
    12:00 +26°C° 0.5 mm 0 m/s 739 mmHg 87%
    13:00 +29°C° 0.5 mm 1 m/s 738 mmHg 84%
    14:00 +29°C° 0.2 mm 1 m/s 737 mmHg 82%
    15:00 +29°C° 0.2 mm 1 m/s 737 mmHg 81%
    16:00 +29°C° 0.2 mm 1 m/s 736 mmHg 80%
    17:00 +26°C° 0 mm 0 m/s 737 mmHg 85%
    18:00 +25°C° 0 mm 0 m/s 737 mmHg 90%
    19:00 +24°C° 0 mm 0 m/s 738 mmHg 95%
    20:00 +24°C° 0 mm 0 m/s 738 mmHg 95%
    21:00 +23°C° 0 mm 0 m/s 738 mmHg 96%
    22:00 +23°C° 0 mm 0 m/s 739 mmHg 97%
    23:00 +23°C° 0.1 mm 0 m/s 739 mmHg 97%

    25 Aprilie, Joi

    Timp Temperatura Precipitaţii Vânt Presiune Umiditate
    00:00 +23°C° 0.1 mm 0 m/s 738 mmHg 97%
    01:00 +23°C° 0.1 mm 0 m/s 738 mmHg 97%
    02:00 +23°C° 0.2 mm 0 m/s 738 mmHg 98%
    03:00 +23°C° 0.2 mm 0 m/s 738 mmHg 98%
    04:00 +23°C° 0.2 mm 0 m/s 738 mmHg 98%
    05:00 +23°C° 0.1 mm 0 m/s 739 mmHg 98%
    06:00 +23°C° 0.1 mm 0 m/s 739 mmHg 98%
    07:00 +23°C° 0.1 mm 0 m/s 740 mmHg 98%
    08:00 +24°C° 0.7 mm 0 m/s 740 mmHg 97%
    09:00 +27°C° 0.7 mm 1 m/s 740 mmHg 96%
    10:00 +27°C° 0.7 mm 1 m/s 740 mmHg 95%
    11:00 +28°C° 0.5 mm 1 m/s 740 mmHg 90%
    12:00 +29°C° 0.5 mm 1 m/s 739 mmHg 85%
    13:00 +30°C° 0.5 mm 1 m/s 738 mmHg 80%
    14:00 +29°C° 0.4 mm 1 m/s 738 mmHg 81%
    15:00 +29°C° 0.4 mm 1 m/s 737 mmHg 83%
    16:00 +29°C° 0.4 mm 1 m/s 737 mmHg 84%
    17:00 +28°C° 0.1 mm 1 m/s 737 mmHg 88%
    18:00 +25°C° 0.1 mm 0 m/s 738 mmHg 92%
    19:00 +24°C° 0.1 mm 0 m/s 738 mmHg 96%
    20:00 +24°C° 0.6 mm 0 m/s 739 mmHg 97%
    21:00 +23°C° 0.6 mm 0 m/s 739 mmHg 98%
    22:00 +23°C° 0.6 mm 0 m/s 740 mmHg 98%
    23:00 +23°C° 0.9 mm 0 m/s 740 mmHg 98%
    Arată mai mult